CAPE
725 839 1122 845 361 405 969 953 802 637 352 159 235 339 461 759 720 488 1178 1027 1088 810 961 739 680 715 505 602 504 467 514 530 220 300 229 183 44 237 287 84 55 0 0
864 648 436 1064 942 652 469 959 751 590 407 60 0 95 35 464 822 787 813 962 668 672 469 606 538 840 821 392 349 559 347 400 228 165 319 313 369 186 58 44 0 1 3
451 467 436 549 704 793 728 653 803 504 322 290 20 7 43 223 821 1148 1127 953 913 784 788 420 390 247 424 676 597 469 369 557 445 159 94 261 376 162 118 75 72 2 5
0 10 92 149 560 798 749 853 821 452 417 224 24 24 173 149 717 1040 1165 1156 868 745 859 804 534 209 534 618 385 507 503 413 378 399 306 207 175 210 221 104 13 2 2
26 1 2 25 57 412 481 512 779 753 554 352 94 60 342 605 651 720 934 828 972 814 779 900 900 661 722 741 606 544 545 484 402 341 207 101 72 148 46 6 0 0 3
0 0 7 28 123 186 125 128 238 391 781 794 602 604 595 802 688 743 862 974 1127 933 862 893 907 670 683 710 723 574 637 494 400 185 65 60 21 12 16 41 23 0 0
146 60 152 25 1 206 153 19 83 151 91 716 914 876 923 903 907 907 855 856 1002 1039 1043 926 882 670 703 590 387 459 283 232 274 211 94 128 58 57 50 23 30 20 27
272 222 205 129 2 4 0 3 1 0 0 94 898 931 876 831 821 821 816 804 838 828 1022 1021 986 655 557 510 375 210 55 0 7 70 148 14 9 0 0 0 4 0 0
317 228 143 27 0 0 0 0 0 206 266 533 855 823 892 925 948 915 888 791 855 752 829 928 847 787 451 324 334 137 0 0 0 0 0 0 0 0 0 2 1 0 0
601 486 301 187 5 1 4 4 51 86 237 675 722 891 1107 1218 1165 1063 796 648 560 534 606 651 558 744 441 227 397 95 12 0 0 0 0 0 0 0 0 0 0 5 0
122 125 120 401 431 420 408 467 569 603 637 652 555 584 909 1176 1334 1170 894 824 700 593 500 346 194 179 265 202 274 105 51 0 0 0 0 0 0 0 0 0 0 0 0
212 64 8 146 293 473 461 519 519 575 572 557 669 824 991 1165 1092 1105 1011 852 967 856 591 298 17 0 13 49 90 22 0 0 0 0 0 0 0 0 0 0 0 0 0
43 0 38 239 338 359 371 260 317 268 324 253 213 176 145 74 46 31 115 152 133 616 359 45 0 0 0 0 0 0 0 0 0 0 0 0 0 0 0 0 0 0 0
0 0 2 191 175 7 0 0 0 0 0 0 65 28 0 0 0 0 0 0 0 1 0 0 0 0 0 0 1 2 1 0 0 0 0 0 0 0 0 0 0 0 0
0 0 0 91 86 0 0 0 0 0 0 0 1 0 1 0 0 0 0 0 2 1 3 4 3 1 1 4 4 2 1 1 0 0 0 0 0 0 0 0 0 0 0
0 0 0 84 24 1 0 0 1 0 0 0 0 0 0 0 0 0 1 1 2 4 5 5 5 5 5 4 3 3 3 0 0 0 0 0 0 0 0 0 0 0 0
0 0 0 1 4 0 0 0 0 0 0 0 0 0 0 0 0 0 0 1 0 0 2 1 1 2 1 1 1 1 0 0 0 0 0 0 0 0 0 0 0 0 0
0 0 1 5 0 0 0 1 1 0 0 0 1 0 0 0 0 0 0 0 0 2 3 3 2 0 0 0 0 0 0 0 0 0 0 0 0 0 0 0 0 0 0
0 0 1 0 0 0 1 1 1 1 1 2 1 0 0 0 0 0 0 2 3 2 2 0 0 0 0 0 0 0 0 0 0 0 0 0 0 0 0 0 0 0 0
0 2 0 0 1 1 2 2 4 4 3 2 1 1 0 0 0 0 1 1 1 0 0 0 0 0 0 0 0 0 0 0 0 0 0 0 0 0 0 0 0 0 0
0 2 0 1 1 1 2 3 3 2 2 1 1 0 0 0 0 0 0 0 0 0 0 0 0 0 0 0 0 0 0 0 0 0 0 0 0 0 0 0 0 0 0
2 6 1 1 1 1 2 1 0 1 1 1 0 0 0 0 0 0 0 0 0 0 0 0 0 0 0 0 0 0 0 0 0 0 0 0 0 0 0 0 0 0 0
3 19 3 2 1 1 0 0 0 0 0 0 0 0 0 0 0 0 0 0 0 0 0 0 0 0 0 0 0 0 0 0 0 0 0 0 0 0 0 0 0 0 0
5 27 42 3 1 2 1 0 0 0 0 0 0 0 0 0 0 0 0 0 0 0 0 0 0 0 0 0 0 0 0 0 0 0 0 0 0 0 0 0 0 0 0
13 5 14 0 3 2 1 0 0 0 0 0 0 0 0 0 0 0 0 0 0 0 0 0 0 0 0 0 0 0 0 0 0 0 0 0 0 0 0 0 0 0 0
2 0 1 0 0 1 0 7 0 0 0 0 0 0 0 0 0 0 0 0 0 0 0 0 0 0 2 4 4 6 0 0 0 0 0 0 0 0 0 0 0 0 0
CIN
-71 -72 -48 -57 -86 -65 -38 -34 -29 -43 -53 -70 -66 -69 -69 -52 -57 -80 -28 -27 -21 -25 -25 -28 -26 -28 -30 -33 -36 -43 -43 -55 -25 -40 -55 -101 -105 -62 -107 -168 -157 -0 -0
-69 -79 -86 -35 -31 -55 -59 -36 -51 -56 -58 -88 -1 -86 -115 -54 -48 -44 -23 -20 -33 -27 -28 -42 -39 -25 -16 -30 -36 -29 -40 -47 -48 -24 -52 -54 -66 -122 -150 -157 -2 -0 -0
-81 -105 -76 -73 -67 -45 -54 -54 -51 -80 -84 -83 -86 -93 -119 -67 -50 -18 -16 -18 -19 -27 -30 -41 -31 -49 -34 -23 -20 -31 -43 -38 -54 -56 -44 -59 -61 -91 -84 -85 -72 -0 -0
-0 -127 -112 -116 -73 -54 -49 -49 -54 -78 -80 -101 -119 -63 -87 -80 -39 -26 -12 -14 -20 -27 -26 -32 -35 -46 -31 -26 -28 -28 -30 -28 -38 -34 -41 -49 -54 -54 -54 -71 -45 -0 -0
-165 -47 -236 -154 -190 -110 -66 -60 -49 -45 -67 -86 -114 -117 -69 -50 -41 -37 -31 -37 -31 -29 -26 -30 -33 -34 -26 -23 -29 -29 -32 -32 -37 -36 -46 -62 -66 -48 -56 -22 -6 -0 -0
-0 -0 -91 -146 -119 -154 -189 -146 -84 -77 -34 -34 -45 -48 -52 -45 -54 -43 -28 -25 -27 -28 -26 -27 -35 -39 -33 -27 -29 -38 -35 -28 -33 -53 -72 -56 -77 -96 -90 -54 -47 -0 -1
-151 -141 -88 -146 -15 -116 -182 -240 -150 -130 -170 -47 -27 -37 -34 -41 -41 -35 -35 -38 -28 -24 -24 -24 -24 -28 -33 -55 -78 -74 -84 -81 -66 -55 -64 -54 -57 -76 -76 -79 -61 -50 -45
-117 -116 -106 -107 -73 -66 -0 -126 -114 -0 -0 -177 -31 -27 -35 -39 -39 -38 -39 -36 -34 -32 -25 -32 -23 -27 -44 -50 -75 -85 -126 -0 -38 -110 -74 -24 -56 -0 -0 -0 -67 -0 -0
-66 -85 -100 -225 -0 -0 -0 -0 -0 -50 -68 -61 -44 -35 -30 -41 -56 -43 -38 -44 -36 -48 -40 -36 -37 -36 -51 -53 -58 -73 -0 -0 -0 -0 -0 -0 -0 -0 -0 -99 -30 -0 -0
-23 -24 -36 -59 -9 -9 -65 -8 -55 -124 -37 -38 -26 -27 -27 -34 -43 -46 -50 -51 -50 -71 -58 -53 -59 -40 -52 -76 -36 -79 -113 -0 -0 -0 -0 -0 -0 -0 -0 -0 -0 -43 -0
-49 -67 -61 -18 -19 -32 -23 -17 -20 -20 -20 -25 -19 -25 -22 -34 -23 -32 -53 -46 -66 -64 -70 -81 -114 -98 -92 -95 -80 -76 -85 -0 -0 -0 -0 -0 -0 -0 -0 -0 -0 -0 -0
-54 -117 -213 -63 -21 -13 -10 -16 -17 -21 -21 -32 -30 -28 -29 -23 -48 -46 -50 -67 -41 -36 -64 -105 -129 -0 -190 -129 -110 -62 -0 -0 -0 -0 -0 -0 -0 -0 -0 -0 -0 -0 -0
-154 -0 -162 -45 -30 -15 -7 -13 -7 -16 -15 -38 -60 -85 -110 -143 -192 -243 -197 -183 -181 -64 -101 -192 -0 -0 -0 -0 -0 -0 -0 -0 -0 -0 -0 -0 -0 -0 -0 -0 -0 -0 -0
-0 -0 -128 -42 -47 -70 -0 -0 -0 -0 -0 -0 -97 -146 -0 -0 -0 -0 -0 -0 -0 -0 -0 -0 -0 -0 -0 -0 -0 -0 -0 -0 -0 -0 -0 -0 -0 -0 -0 -0 -0 -0 -0
-0 -0 -0 -86 -69 -0 -0 -0 -0 -0 -0 -0 -0 -0 -1 -0 -0 -0 -0 -0 -0 -0 -0 -0 -0 -0 -0 -0 -0 -0 -0 -0 -0 -0 -0 -0 -0 -0 -0 -0 -0 -0 -0
-0 -0 -0 -69 -125 -33 -0 -0 -0 -0 -0 -0 -0 -0 -0 -0 -0 -0 -0 -0 -0 -0 -0 -0 -0 -0 -0 -0 -0 -0 -0 -0 -0 -0 -0 -0 -0 -0 -0 -0 -0 -0 -0
-0 -0 -0 -4 -17 -0 -0 -0 -0 -0 -0 -0 -0 -0 -0 -0 -0 -0 -0 -0 -0 -0 -0 -0 -0 -0 -0 -0 -0 -0 -0 -0 -0 -0 -0 -0 -0 -0 -0 -0 -0 -0 -0
-0 -0 -2 -9 -0 -0 -0 -0 -0 -0 -0 -0 -0 -0 -0 -0 -0 -0 -0 -0 -0 -0 -0 -0 -0 -0 -0 -0 -0 -0 -0 -0 -0 -0 -0 -0 -0 -0 -0 -0 -0 -0 -0
-2 -3 -10 -9 -0 -0 -0 -0 -0 -0 -0 -0 -0 -0 -0 -0 -0 -0 -0 -0 -0 -0 -0 -0 -0 -0 -0 -0 -0 -0 -0 -0 -0 -0 -0 -0 -0 -0 -0 -0 -0 -0 -0
-0 -10 -4 -0 -0 -0 -0 -0 -0 -0 -0 -0 -0 -0 -0 -0 -0 -0 -0 -0 -0 -0 -0 -0 -0 -0 -0 -0 -0 -0 -0 -0 -0 -0 -0 -0 -0 -0 -0 -0 -0 -0 -0
-1 -12 -11 -0 -0 -0 -0 -0 -0 -0 -0 -0 -0 -0 -0 -0 -0 -0 -0 -0 -0 -0 -0 -0 -0 -0 -0 -0 -0 -0 -0 -0 -0 -0 -0 -0 -0 -0 -0 -0 -0 -0 -0
-3 -4 -0 -0 -0 -0 -0 -0 -1 -0 -0 -0 -0 -0 -0 -0 -0 -0 -0 -0 -0 -0 -0 -0 -0 -0 -0 -0 -0 -0 -0 -0 -0 -0 -0 -0 -0 -0 -0 -0 -0 -0 -0
-2 -1 -7 -0 -0 -0 -0 -0 -0 -0 -0 -0 -0 -0 -0 -0 -0 -0 -0 -0 -0 -0 -0 -0 -0 -0 -0 -0 -0 -0 -0 -0 -0 -0 -0 -0 -0 -0 -0 -0 -0 -0 -0
-5 -1 -2 -4 -0 -0 -0 -0 -0 -0 -0 -0 -0 -0 -0 -0 -0 -0 -0 -0 -0 -0 -0 -0 -0 -0 -0 -0 -0 -0 -0 -0 -0 -0 -0 -0 -0 -0 -0 -0 -0 -0 -0
-4 -14 -33 -4 -0 -0 -0 -0 -0 -0 -0 -0 -0 -0 -0 -0 -0 -0 -0 -0 -0 -0 -0 -0 -0 -0 -0 -0 -0 -0 -0 -0 -0 -0 -0 -0 -0 -0 -0 -0 -0 -0 -0
-27 -0 -0 -0 -0 -0 -0 -13 -0 -0 -0 -0 -0 -0 -0 -0 -0 -0 -0 -0 -0 -0 -0 -0 -0 -0 -47 -48 -50 -57 -0 -0 -0 -0 -0 -0 -0 -0 -0 -0 -0 -0 -0
Wind_Speed
15 5 13 28 28 29 30 33 32 32 32 31 13 8 15 12 10 27 9 7 9 14 11 8 7 12 11 11 12 14 15 14 13 11 10 10 8 8 10 10 10 10 9
9 6 10 25 24 26 31 31 25 33 32 30 26 24 33 31 19 8 2 8 6 8 11 7 9 14 10 10 12 13 14 14 12 11 12 10 10 9 10 9 9 9 9
26 29 27 8 37 34 33 35 8 23 33 30 28 26 13 25 24 11 5 1 6 13 11 6 5 11 14 5 12 11 14 14 12 11 11 11 12 8 10 10 9 11 12
15 27 32 31 32 34 36 36 35 15 20 29 34 28 29 27 25 26 27 22 17 23 10 5 5 4 5 5 4 5 10 13 13 14 13 11 11 11 11 11 12 13 12
5 16 13 23 27 26 27 27 30 24 31 31 28 28 21 35 33 34 34 32 30 24 18 14 11 7 8 9 3 4 8 11 14 12 11 11 11 11 9 11 12 12 14
3 3 7 16 25 25 28 30 29 30 35 27 32 37 32 10 27 29 33 35 34 30 17 16 6 3 9 10 7 9 10 10 10 12 12 11 10 12 12 12 11 12 14
5 7 6 9 10 25 27 35 37 34 35 36 31 32 37 25 15 20 24 18 10 22 26 15 5 11 9 9 11 12 14 14 14 13 11 10 10 10 12 13 13 12 12
5 4 2 3 5 8 23 22 40 37 40 40 38 16 12 23 12 11 9 10 8 11 9 9 10 8 11 9 11 13 15 17 16 13 11 10 11 12 12 14 14 14 14
6 3 2 2 3 2 4 15 35 36 37 41 40 38 32 31 19 11 11 17 13 13 17 17 13 10 10 9 11 13 15 16 15 13 11 11 13 14 11 11 11 12 14
10 7 5 1 2 2 5 37 32 37 36 36 39 38 36 33 26 20 15 18 22 22 21 18 18 13 12 11 13 11 12 10 9 10 12 13 14 15 15 11 9 12 14
14 14 13 13 9 12 19 19 29 26 30 34 34 33 24 23 25 28 27 25 27 26 22 21 20 18 14 13 13 11 10 6 7 9 11 13 14 13 13 13 13 10 11
17 19 21 18 18 18 19 24 23 24 30 31 31 32 30 28 28 29 28 25 27 27 23 18 18 17 15 15 14 12 7 5 8 9 10 12 14 15 14 10 13 14 14
17 19 21 20 16 15 14 17 20 23 26 28 28 29 30 30 31 30 32 33 28 25 21 18 15 13 14 16 13 8 5 6 7 7 9 9 9 9 10 10 14 14 16
18 20 21 17 14 15 16 17 19 22 24 26 26 27 29 28 29 27 29 29 26 23 18 14 9 10 11 16 11 9 8 5 5 6 3 6 7 8 8 9 10 11 13
22 22 20 16 11 14 16 18 21 22 23 25 26 26 26 25 25 24 24 21 18 13 10 9 9 10 7 11 9 5 5 1 2 3 5 7 9 8 7 7 9 9 10
22 21 19 11 11 12 13 18 22 23 25 25 27 26 25 27 25 21 19 18 15 7 9 8 10 12 9 8 3 4 0 5 7 10 9 9 7 7 9 9 9 8 10
18 19 19 16 15 15 16 16 19 19 20 21 22 22 18 23 18 16 13 11 11 9 8 10 13 5 5 1 3 4 6 5 10 9 7 7 9 10 10 10 11 11 11
18 20 18 16 13 12 13 16 18 19 19 20 20 17 15 13 12 9 7 8 9 9 7 5 4 3 6 5 5 0 3 8 9 7 9 10 9 9 10 10 10 11 11
17 18 15 11 11 11 13 14 14 13 13 13 12 12 10 8 8 9 10 8 6 4 4 6 7 8 8 8 6 5 8 8 5 7 7 8 9 10 11 10 11 11 11
17 17 10 9 8 10 10 10 8 9 9 9 9 8 8 8 9 9 9 8 8 8 8 8 9 10 10 10 9 8 6 6 7 7 8 8 9 10 12 12 12 11 11
16 16 8 7 7 8 7 6 7 7 8 8 9 9 9 10 10 11 11 12 13 14 11 10 9 10 14 8 8 9 13 14 7 7 8 9 9 10 11 11 11 13 12
15 13 7 6 6 3 3 5 6 7 8 9 9 9 8 9 10 11 11 11 10 10 10 9 9 11 14 16 16 11 12 8 8 9 10 10 10 10 10 12 12 13 12
13 10 6 3 1 3 3 4 6 5 7 10 11 9 7 8 9 10 11 14 11 8 5 5 9 9 11 9 9 11 10 13 14 12 11 10 10 11 11 12 11 10 11
11 9 6 4 4 5 5 5 4 3 9 11 12 7 7 5 8 10 11 12 9 4 5 11 15 14 11 9 9 10 15 13 11 10 10 11 10 10 11 10 10 10 12
9 8 6 5 8 11 6 6 7 4 4 10 10 6 5 5 5 5 8 10 3 4 4 4 7 15 10 11 13 14 14 12 10 10 9 10 10 10 11 9 9 10 11
8 6 4 2 3 11 10 8 5 5 5 8 7 5 6 3 10 11 11 7 6 2 13 16 7 8 16 11 9 9 11 10 9 9 9 9 10 11 11 11 9 8 8
Wind_Direction
174 243 179 195 195 199 202 212 234 229 221 235 248 288 172 168 165 248 314 341 333 311 333 358 5 338 349 13 8 351 351 4 12 54 66 47 54 65 53 55 50 66 64
257 239 184 192 192 193 201 200 262 231 245 253 264 271 240 252 283 304 337 324 343 333 339 351 344 322 343 5 357 355 351 350 5 9 16 39 38 54 34 49 52 45 38
260 258 267 242 226 212 208 210 234 266 250 257 265 264 176 270 268 283 203 166 331 317 329 358 17 333 318 58 350 356 344 351 1 4 5 8 5 32 22 29 38 28 22
287 275 269 269 261 251 245 243 246 269 273 263 236 263 259 263 271 270 269 278 296 286 170 147 125 100 131 124 52 39 2 349 353 354 355 0 2 3 6 12 12 8 8
292 292 306 272 270 269 268 270 264 269 258 258 202 203 194 235 253 247 232 221 229 209 194 186 184 179 177 175 81 22 6 353 347 350 352 355 360 0 11 5 358 3 356
287 275 299 287 278 272 267 266 266 265 256 267 258 230 213 195 206 211 223 239 236 226 199 198 191 322 319 328 348 345 349 346 346 348 345 347 351 351 355 356 357 354 350
161 182 188 311 271 268 269 260 255 260 260 255 263 261 233 205 200 201 205 286 216 209 215 205 264 313 309 312 321 331 334 335 332 334 337 341 342 348 347 346 346 345 345
79 89 63 156 205 286 260 277 255 261 254 249 255 275 269 282 270 228 239 271 243 220 273 279 223 283 302 299 310 322 326 326 328 332 335 338 337 338 341 341 342 347 351
18 41 99 25 352 289 216 183 255 264 263 246 254 263 274 276 282 240 262 284 277 276 284 287 286 266 277 286 299 309 317 323 332 340 346 346 343 338 342 347 344 348 340
352 355 0 123 169 210 268 238 266 252 263 262 259 264 269 274 281 283 279 287 287 286 287 285 285 275 276 275 290 293 302 309 324 334 335 338 339 342 344 351 351 344 342
334 333 333 329 324 304 297 296 276 281 276 272 271 272 282 283 285 283 284 286 286 285 283 282 283 279 274 277 285 281 285 289 314 329 331 333 336 341 344 350 359 16 14
329 320 315 320 314 308 299 292 287 281 278 279 281 279 282 285 287 285 285 284 285 284 284 281 279 276 278 281 286 287 282 288 308 318 329 334 339 345 349 31 28 31 31
329 323 320 318 321 319 313 304 293 287 283 282 285 286 285 286 287 289 288 285 285 282 281 279 272 270 278 279 282 277 269 285 295 311 318 340 7 38 58 20 19 33 34
325 322 321 324 326 321 314 308 301 293 289 288 290 291 291 292 289 295 294 293 289 286 280 269 246 264 276 270 276 281 287 286 296 309 16 57 45 59 37 15 28 26 31
317 316 317 322 327 322 317 310 303 299 297 291 289 291 293 297 301 302 303 303 303 295 276 262 260 270 264 265 277 283 284 335 35 53 72 57 73 67 37 46 35 41 38
321 314 313 325 327 326 325 316 309 302 298 294 288 289 293 294 299 306 307 307 307 301 295 274 268 267 270 245 249 282 237 91 83 99 82 78 65 43 45 36 29 44 48
326 318 315 312 313 316 320 320 312 310 311 307 301 298 298 298 308 313 319 325 318 317 308 310 314 276 320 331 45 101 88 69 95 87 72 64 67 55 45 47 45 55 42
328 318 317 313 317 323 324 322 318 311 309 307 308 310 311 312 321 330 339 336 324 319 328 337 356 35 55 49 81 195 27 74 72 58 63 72 58 40 37 45 43 41 37
333 327 326 327 326 326 326 328 330 331 331 329 333 337 346 354 350 342 336 337 330 339 15 59 73 71 68 76 65 25 53 53 47 48 30 35 36 33 25 29 29 33 37
331 329 336 338 339 336 337 342 353 0 1 5 4 9 8 10 6 6 15 31 52 64 73 75 76 79 78 79 75 72 59 39 39 38 26 30 30 38 37 35 26 33 34
330 330 339 340 341 349 355 11 15 29 41 41 34 28 29 41 41 51 57 67 77 80 78 78 79 86 93 76 73 74 79 84 48 32 24 28 42 35 23 21 21 21 27
326 327 331 334 340 345 28 36 54 67 61 61 54 44 31 39 55 64 66 71 71 70 70 72 73 83 91 96 98 82 83 48 47 52 51 41 27 23 21 18 28 26 37
318 314 298 307 39 114 94 86 92 68 69 77 74 66 51 51 56 60 66 81 78 55 6 40 76 77 80 75 74 81 74 87 87 64 53 44 40 31 23 15 25 30 27
315 306 285 231 194 172 146 128 109 106 99 95 96 76 66 47 60 65 72 86 72 13 59 88 97 94 86 77 77 83 108 99 77 71 65 55 50 35 24 33 38 37 33
322 313 290 254 197 182 176 150 129 151 106 110 109 89 75 61 38 43 79 91 13 63 65 55 80 104 90 100 113 124 129 113 92 102 92 69 55 33 25 32 34 31 33
346 341 321 277 213 175 166 181 173 249 119 124 119 93 92 25 99 97 106 92 87 2 112 125 88 97 141 121 111 118 137 129 109 98 80 58 37 20 24 21 29 36 28